Regional Weather Roundup
Issued by NWS

Home | Current Version | Previous Version | Text Only | Print | Product List | Glossary On
Versions: 1 2 3 4 5 6 7 8 9 10 11 12 13 14 15 16 17 18 19 20 21 22 23 24 25 26 27 28 29 30 31 32 33 34 35 36 37 38 39 40 41 42 43 44 45 46 47 48 49 50
000
ASUS43 KOAX 070210
RWRNE

WEATHER ROUNDUP FOR NEBRASKA
NATIONAL WEATHER SERVICE OMAHA NE
900 PM CDT MON JUL 06 2015

NOTES: SATELLITE DATA IS BEING USED TO AUGMENT CLOUD COVER ABOVE
       12000 FEET.
       "FAIR" INDICATES FEW OR NO CLOUDS BELOW 12,000 FEET WITH NO
       SIGNIFICANT WEATHER AND/OR OBSTRUCTIONS TO VISIBILITY.

  * THESE STATIONS DO NOT REPORT WEATHER SUCH AS RAIN...SNOW OR FOG.

NEZ001>004-019>022-054>056-070300-
NEBRASKA PANHANDLE

CITY           SKY/WX    TMP DP  RH WIND       PRES   REMARKS
SCOTTSBLUFF    CLOUDY    66  57  72 N3        30.21S HAZE
ALLIANCE       CLOUDY    66  55  67 N6        30.20R
CHADRON        CLOUDY    67  56  67 NE5       30.18S
KIMBALL          N/A    N/A N/A N/A MISG        N/A
SIDNEY         CLOUDY    65  52  62 NE8       30.23R HAZE
$$

NEZ057>060-069>072-079>082-070300-
SOUTHWEST NEBRASKA

CITY           SKY/WX    TMP DP  RH WIND       PRES   REMARKS
NORTH PLATTE   PTCLDY    68  53  58 N8        30.15R
IMPERIAL       CLOUDY    70  51  51 NE14      30.17R
LEXINGTON      CLEAR     69  54  58 N7        30.13R
MCCOOK         CLEAR     69  54  58 N9        30.13R HAZE
OGALLALA       CLOUDY    69  53  56 NE7       30.18R HAZE
$$

NEZ005>010-023>029-035>040-094-070300-
NORTH CENTRAL NEBRASKA

CITY           SKY/WX    TMP DP  RH WIND       PRES   REMARKS
VALENTINE      CLEAR     68  53  58 N7        30.15R
AINSWORTH      CLEAR     66  55  68 N6        30.15R
BROKEN BOW     PTCLDY    70  53  54 N10       30.13R
O`NEILL        CLEAR     66  55  69 NE7       30.12S HAZE
ORD            PTCLDY    68  52  56 N10       30.10R
THEDFORD       CLEAR     67  56  67 N6        30.17R
$$

NEZ041-046>049-061>064-073>077-083>087-070300-
SOUTH CENTRAL NEBRASKA

CITY           SKY/WX    TMP DP  RH WIND       PRES   REMARKS
GRAND ISLAND   MOCLDY    69  57  65 N13       30.09R HAZE
AURORA         CLOUDY    69  60  72 N10       30.06S HAZE
HASTINGS       CLOUDY    69  59  70 N9        30.07R HAZE
HEBRON         CLOUDY    72  60  67 NE12      30.02R HAZE
HOLDREGE       CLEAR     68  55  62 NE10      30.10R HAZE
KEARNEY *      PTCLDY    66  55  68 N8        30.10R
YORK           PTCLDY    68  63  83 N9        30.05S HAZE
$$

NEZ011>018-030>034-042>045-070300-
NORTHEAST NEBRASKA

CITY           SKY/WX    TMP DP  RH WIND       PRES   REMARKS
NORFOLK        PTCLDY    69  58  67 N10       30.07R HAZE
ALBION         CLEAR     68  55  64 N8        30.09R HAZE
BLAIR          CLOUDY    70  62  75 N9        30.01R HAZE
FREMONT          N/A     71  59  66 N6        30.03R HAZE
TEKAMAH        CLOUDY    72  59  63 N14       30.01R HAZE
WAYNE          CLOUDY    66  62  85 N3        30.07R FOG
$$

NEZ050>053-065>068-078-088>093-070300-
SOUTHEAST NEBRASKA

CITY           SKY/WX    TMP DP  RH WIND       PRES   REMARKS
LINCOLN        CLOUDY    70  63  78 N10       30.02R HAZE
OMAHA EPPLEY   CLOUDY    70  62  76 N8        29.99R HAZE
BEATRICE       CLOUDY    71  63  77 N14       30.00R
FALLS CITY     CLOUDY    69  65  86 N9        29.94R
NEBRASKA CITY  CLOUDY    71  60  67 N16       29.97R HAZE
PLATTSMOUTH    CLOUDY    69  58  66 N7        29.99R HAZE
$$

NEZ044-045-051>053-067-070300-
OMAHA AREA

CITY           SKY/WX    TMP DP  RH WIND       PRES   REMARKS
OMAHA EPPLEY   CLOUDY    70  62  76 N8        29.99R HAZE
BLAIR          CLOUDY    70  62  75 N9        30.01R HAZE
FREMONT          N/A     71  59  66 N6        30.03R HAZE
MILLARD        CLOUDY    73  63  72 N3        30.00R HAZE
OFFUTT AFB     CLOUDY    71  60  67 N7        29.99R HAZE
PLATTSMOUTH    CLOUDY    69  58  66 N7        29.99R HAZE
WAHOO          CLOUDY    70  60  71 N12       30.01R HAZE
$$



USA.gov is the U.S. government's official web portal to all federal, state and local government web resources and services.